ASA7004 PAPG-PAJN

Flight info

Callsign ASA7004
Flight time 0h 27m
Altitude 20000
Route SSR
Aircraft B737/M-SDE2E3FGHIRWXY/LB1

Departure

Time 2026-05-03 20:45
Airport Petersburg James A Johnson Airport (PAPG)

Arrival

Time 2026-05-03 21:12
Airport Juneau International Airport (PAJN)
Time Latitude Longitude Altitude Speed Heading
2026-05-03 20:36 56.80565 -132.93304 117 ft 0 kts 71°
2026-05-03 20:41 56.80567 -132.93294 121 ft 5 kts 68°
2026-05-03 20:41 56.80576 -132.93287 121 ft 0 kts 345°
2026-05-03 20:41 56.80570 -132.93306 121 ft 6 kts 234°
2026-05-03 20:41 56.80528 -132.93396 119 ft 13 kts 200°
2026-05-03 20:42 56.80439 -132.93366 117 ft 13 kts 167°
2026-05-03 20:42 56.80375 -132.93445 118 ft 14 kts 250°
2026-05-03 20:42 56.80327 -132.93681 118 ft 25 kts 250°
2026-05-03 20:42 56.80270 -132.94043 119 ft 33 kts 254°
2026-05-03 20:43 56.80188 -132.94431 119 ft 32 kts 250°
2026-05-03 20:43 56.80121 -132.94809 120 ft 30 kts 252°
2026-05-03 20:43 56.80051 -132.95156 120 ft 27 kts 249°
2026-05-03 20:43 56.79989 -132.95461 122 ft 24 kts 251°
2026-05-03 20:44 56.79939 -132.95743 121 ft 23 kts 253°
2026-05-03 20:44 56.79910 -132.96020 122 ft 20 kts 271°
2026-05-03 20:44 56.79888 -132.96036 117 ft 1 kts 128°
2026-05-03 20:44 56.79936 -132.95722 121 ft 77 kts 71°
2026-05-03 20:45 56.80238 -132.94176 368 ft 161 kts 73°
2026-05-03 20:45 56.80582 -132.92086 1723 ft 182 kts 69°
2026-05-03 20:45 56.81471 -132.90402 2992 ft 197 kts 15°
2026-05-03 20:45 56.82824 -132.90445 4429 ft 203 kts 348°
2026-05-03 20:46 56.84153 -132.91637 5522 ft 223 kts 321°
2026-05-03 20:46 56.85377 -132.93615 6708 ft 243 kts 317°
2026-05-03 20:46 56.86629 -132.95735 8169 ft 243 kts 316°
2026-05-03 20:46 56.87448 -132.97117 9076 ft 243 kts 315°
2026-05-03 20:47 56.88692 -132.99238 10249 ft 247 kts 314°
2026-05-03 20:47 56.89962 -133.01354 11274 ft 249 kts 315°
2026-05-03 20:47 56.91219 -133.03472 12406 ft 247 kts 313°
2026-05-03 20:47 56.92501 -133.05699 13400 ft 257 kts 313°
2026-05-03 20:48 56.93780 -133.08015 14542 ft 261 kts 311°
2026-05-03 20:48 56.95127 -133.10339 15390 ft 270 kts 315°
2026-05-03 20:48 56.96583 -133.12562 16209 ft 274 kts 315°
2026-05-03 20:48 56.98024 -133.14846 17109 ft 275 kts 314°
2026-05-03 20:49 56.99420 -133.17210 17929 ft 280 kts 313°
2026-05-03 20:49 57.00860 -133.19714 18875 ft 284 kts 313°
2026-05-03 20:49 57.02299 -133.22195 19595 ft 291 kts 313°
2026-05-03 20:49 57.03795 -133.24752 20089 ft 294 kts 313°
2026-05-03 20:50 57.05295 -133.27301 20367 ft 296 kts 313°
2026-05-03 20:50 57.06874 -133.29982 20419 ft 317 kts 313°
2026-05-03 20:50 57.08529 -133.32802 20424 ft 341 kts 314°
2026-05-03 20:50 57.10330 -133.35867 20423 ft 363 kts 314°
2026-05-03 20:51 57.12235 -133.39108 20427 ft 381 kts 314°
2026-05-03 20:51 57.14228 -133.42496 20425 ft 397 kts 314°
2026-05-03 20:51 57.16294 -133.46011 20422 ft 410 kts 314°
2026-05-03 20:51 57.18405 -133.49606 20417 ft 419 kts 314°
2026-05-03 20:52 57.20547 -133.53261 20400 ft 419 kts 314°
2026-05-03 20:52 57.22679 -133.56896 20426 ft 415 kts 314°
2026-05-03 20:52 57.24799 -133.60516 20415 ft 416 kts 314°
2026-05-03 20:52 57.26898 -133.64109 20411 ft 416 kts 314°
2026-05-03 20:53 57.29013 -133.67738 20415 ft 415 kts 314°
2026-05-03 20:53 57.31144 -133.71371 20418 ft 415 kts 314°
2026-05-03 20:53 57.33264 -133.74989 20420 ft 415 kts 314°
2026-05-03 20:53 57.35383 -133.78633 20424 ft 415 kts 314°
2026-05-03 20:54 57.37499 -133.82286 20430 ft 416 kts 314°
2026-05-03 20:54 57.41730 -133.89624 20411 ft 416 kts 314°
2026-05-03 20:54 57.43836 -133.93283 20435 ft 416 kts 314°
2026-05-03 20:55 57.45954 -133.96975 20429 ft 416 kts 314°
2026-05-03 20:55 57.48056 -134.00642 20402 ft 416 kts 314°
2026-05-03 20:55 57.50169 -134.04334 20401 ft 415 kts 314°
2026-05-03 20:55 57.52276 -134.08020 20396 ft 415 kts 314°
2026-05-03 20:56 57.54377 -134.11708 20401 ft 415 kts 313°
2026-05-03 20:56 57.56473 -134.15397 20396 ft 416 kts 313°
2026-05-03 20:56 57.58575 -134.19112 20385 ft 416 kts 313°
2026-05-03 20:56 57.60662 -134.22767 20416 ft 416 kts 314°
2026-05-03 20:57 57.62784 -134.26471 20393 ft 416 kts 314°
2026-05-03 20:57 57.64881 -134.30174 20397 ft 416 kts 313°
2026-05-03 20:57 57.66981 -134.33901 20402 ft 417 kts 314°
2026-05-03 20:57 57.69099 -134.37624 20422 ft 416 kts 313°
2026-05-03 20:58 57.71204 -134.41359 20383 ft 417 kts 313°
2026-05-03 20:58 57.73298 -134.45122 20408 ft 417 kts 313°
2026-05-03 20:58 57.75389 -134.48872 20382 ft 416 kts 313°
2026-05-03 20:58 57.77485 -134.52620 20381 ft 416 kts 313°
2026-05-03 20:59 57.79551 -134.56318 20375 ft 416 kts 313°
2026-05-03 20:59 57.81644 -134.60067 20387 ft 416 kts 313°
2026-05-03 20:59 57.83731 -134.63814 20378 ft 416 kts 313°
2026-05-03 20:59 57.85824 -134.67573 20376 ft 416 kts 313°
2026-05-03 21:00 57.87918 -134.71339 20396 ft 416 kts 313°
2026-05-03 21:00 57.89331 -134.73884 20382 ft 417 kts 313°
2026-05-03 21:00 57.92101 -134.78884 20386 ft 416 kts 313°
2026-05-03 21:00 57.94194 -134.82672 20387 ft 416 kts 313°
2026-05-03 21:01 57.96278 -134.86456 20380 ft 417 kts 313°
2026-05-03 21:01 57.98367 -134.90260 20379 ft 417 kts 313°
2026-05-03 21:01 58.00458 -134.94071 20373 ft 417 kts 313°
2026-05-03 21:01 58.02516 -134.97825 20372 ft 415 kts 313°
2026-05-03 21:02 58.04548 -135.01534 20280 ft 395 kts 312°
2026-05-03 21:02 58.06468 -135.05054 20156 ft 373 kts 312°
2026-05-03 21:02 58.08286 -135.08365 20039 ft 352 kts 311°
2026-05-03 21:02 58.10001 -135.11492 19916 ft 333 kts 311°
2026-05-03 21:03 58.11775 -135.14265 19246 ft 340 kts 325°
2026-05-03 21:03 58.14035 -135.15837 18563 ft 353 kts 343°
2026-05-03 21:03 58.16515 -135.15970 17776 ft 367 kts
2026-05-03 21:03 58.19001 -135.14436 17026 ft 382 kts 23°
2026-05-03 21:04 58.21063 -135.11251 16273 ft 395 kts 46°
2026-05-03 21:04 58.22495 -135.06755 15560 ft 399 kts 58°
2026-05-03 21:04 58.24176 -135.02716 14808 ft 388 kts 34°
2026-05-03 21:04 58.26496 -135.00280 14105 ft 374 kts 13°
2026-05-03 21:05 58.28972 -134.99542 13303 ft 349 kts 352°
2026-05-03 21:05 58.31238 -135.00480 12526 ft 324 kts 330°
2026-05-03 21:05 58.33151 -135.02544 11784 ft 309 kts 322°
2026-05-03 21:05 58.34918 -135.04757 11046 ft 301 kts 323°
2026-05-03 21:06 58.36810 -135.06476 10310 ft 299 kts 332°
2026-05-03 21:06 58.38779 -135.07703 9488 ft 299 kts 345°
2026-05-03 21:06 58.40861 -135.07709 8710 ft 305 kts
2026-05-03 21:06 58.42826 -135.06099 7943 ft 313 kts 31°
2026-05-03 21:07 58.44297 -135.03039 7235 ft 312 kts 58°
2026-05-03 21:07 58.44967 -134.99199 6510 ft 301 kts 84°
2026-05-03 21:07 58.44770 -134.95404 5771 ft 285 kts 108°
2026-05-03 21:07 58.43930 -134.92065 5010 ft 269 kts 122°
2026-05-03 21:08 58.42954 -134.89158 4225 ft 257 kts 130°
2026-05-03 21:08 58.41816 -134.86605 3527 ft 245 kts 133°
2026-05-03 21:08 58.40734 -134.84301 3259 ft 220 kts 133°
2026-05-03 21:08 58.39766 -134.82254 3075 ft 197 kts 133°
2026-05-03 21:09 58.38896 -134.80418 2980 ft 175 kts 133°
2026-05-03 21:09 58.38079 -134.78744 2434 ft 176 kts 135°
2026-05-03 21:09 58.37547 -134.76777 1929 ft 168 kts 95°
2026-05-03 21:09 58.37430 -134.74722 1921 ft 148 kts 97°
2026-05-03 21:10 58.37320 -134.72739 1864 ft 155 kts 98°
2026-05-03 21:10 58.37155 -134.70700 1548 ft 157 kts 100°
2026-05-03 21:10 58.36952 -134.68676 1335 ft 155 kts 103°
2026-05-03 21:10 58.36717 -134.66696 1140 ft 152 kts 103°
2026-05-03 21:11 58.36468 -134.64713 837 ft 157 kts 105°
2026-05-03 21:11 58.36201 -134.62720 426 ft 154 kts 106°
2026-05-03 21:11 58.35936 -134.60840 134 ft 139 kts 105°
2026-05-03 21:11 58.35718 -134.59223 34 ft 118 kts 105°
2026-05-03 21:12 58.35525 -134.57842 34 ft 83 kts 105°
2026-05-03 21:12 58.35424 -134.57142 34 ft 43 kts 105°
2026-05-03 21:12 58.35408 -134.56712 32 ft 23 kts 52°
2026-05-03 21:12 58.35483 -134.56740 32 ft 8 kts 290°
2026-05-03 21:13 58.35494 -134.56811 33 ft 0 kts 285°
2026-05-03 21:13 58.35495 -134.56813 33 ft 2 kts 285°
2026-05-03 21:13 58.35513 -134.56950 33 ft 18 kts 284°
2026-05-03 21:14 58.35549 -134.57199 33 ft 20 kts 285°
2026-05-03 21:14 58.35585 -134.57447 33 ft 18 kts 281°
2026-05-03 21:14 58.35615 -134.57674 32 ft 17 kts 285°
2026-05-03 21:14 58.35652 -134.57886 33 ft 15 kts 308°
2026-05-03 21:15 58.35723 -134.57964 33 ft 12 kts 288°
2026-05-03 21:15 58.35734 -134.58017 33 ft 4 kts 288°
2026-05-03 21:15 58.35753 -134.58190 31 ft 20 kts 282°
2026-05-03 21:15 58.35797 -134.58301 33 ft 7 kts
2026-05-03 21:16 58.35828 -134.58301 33 ft 0 kts